FLOCK 4V-24 (46738 NORAD) Tracking and Keplerian Element Data

This shows tracking and keplerian element data for the satellite.

Feedback or suggestion? Click here.




ElementValue
Catalog46738
NameFLOCK 4V-24
Epoch Orbit508
Epoch Day331.15520643
Epoch Year2020
RAAN42.7416
Inclination97.4669
Eccentricity0.0006469
Argument of Perigee327.8229
Mean Anonmoly32.2615
Mean Motion15.14844835
Decay Rate1.145E-05
L11 46738U 20061BN 20331.15520643 .00001145 00000-0 65117-4 0 9997
L22 46738 97.4669 42.7416 0006469 327.8229 32.2615 15.14844835 5088

Live tracking and technical data element details for FLOCK 4V-24 (NORAD 46738). FLOCK 4V-24 can be tracked NOW for your location showing map with azimuth and elevation plus other details from your city location.

Track the satellite on the map from your city or location and see movement details for azimuth, elevation, latitude, longitude, range, height, and movement on the map or in text.







IsCatalogInMostPopularTable: catalog: 46738, numindb: 9
Update: records affected: 1



GetName: 46738 FLOCK 4V-24

Hit Count: updated at: Thu, 26 Nov 2020 18:01:15 GMT